STARLINK-3917, 52588

Orbit data source: Space-Track

STARLINK-3917, 52588 is a payload satellite owned by SpaceX/Seattle (US) in LEO that was launched on Fri, 13 May 2022 UTC via an FALCON 9 launch vehicle from the Air Force Western Test Range (AFWTR). Payload-class satellites include a variety of spacecraft equipped with specific instruments for various scientific and technological missions. These include communications satellites like Starlink; space stations such as the ISS; scientific satellites like the Hubble; Earth observation satellites from companies like Planet Labs, Umbra, and HawkEye 360; GPS; miniature CubeSats for education and research; and military/defense satellites.

Loading next visibility...
Identifier
52588, 2022-051BE
Orbit
LEO
Country
Flag of USUS
Related business
Manufacturer
SpaceX/Seattle
Mission
Operational Commercial Communications
Bus & Motor
STARLINK, Unknown motor
Mass
297 kg wet, ~275 kg dry
Launch date (UTC)
2022-05-13 (4 years ago)
Launch vehicle
FALCON 9
Launch site
Air Force Western Test Range (AFWTR)
Object type
Payload
Rocket body
Debris
Shape & HBR
Box + 1 Pan, 10.1 m
Radar Cross Section
13.562 m², Large (>1 m²)

Expand to show TLE details & history
Last TLE update: 2 days ago

TLE from 2 days ago
0 STARLINK-3917
1 52588U 22051BE  26170.99671353 -.00000373  00000-0 -53543-5 0  9997
2 52588  53.1589  19.7324 0001265  95.3797 264.7339 15.08833890227034
Epoch: 2026-06-19T23:55Z
TLE epoch observation values (Epoch: 2026-06-19T23:55:16.048Z)
Latitude
-0.00003°
Longitude
112.69784°
Altitude
540.734 km
Speed
7.593 km/s
True Right ascension
01h 18m 55s
True Declination
0° 00' 00"
Sunlit
Object was in daylight at epoch
Visualization orbit readout
Latitude
Unknown
Longitude
Unknown
Altitude
Unknown
Speed
Unknown
Apparent Right ascension
Unknown
Apparent Declination
Unknown
Sunlit
N/A
Visualization observer readout
Local Sidereal Time
21:33:46
Azimuth
Unknown
Elevation
Unknown
Doppler factor
Unknown
Orbital elements
Apogee altitude
540.892 km
Perigee altitude
539.141 km
Semi-major axis
6,918.153 km
Eccentricity
0.00013
Inclination
53.1589°
RAAN
19.7324°
Arg. of periapsis
95.3797°
True anomaly
264.71947°
Mean anomaly
264.7339°
Eccentric anomaly
264.72668°
Mean motion
3.77188 °/min
Orbital period
95.44 mins
BSTAR
-0.0000053543
Loading maneuver chart data...
Computing Atmospheric mass density...
Loading historical data...
Loading historical data...
Loading historical data...
Loading historical data...
Loading historical data...
Loading historical data...
Loading historical data...

Documentation

Showing up to 5 results
|